Location: Avenches
(46.8809°N, 7.0410°E)
Time: 23:13:38
(UTC+00:00)

STARLINK-1101 - Pass Details

Date: 30 March 2020
Orbit: 549 x 550 km, 53.0° (Epoch: 27 May)

Event Time Altitude Azimuth Distance (km) Brightness Sun altitude
Rises 20:25:03 0° 298° (WNW) 2,726 8.6 -23.9°
Reaches altitude 10° 20:27:19 10° 293° (WNW) 1,829 7.3 -24.2°
Enters shadow 20:30:51 49° 246° (WSW) 714 4.2 -24.7°
